Home   Weather   Ahlen   Past weeks
Flag for Germany

Past Weather in Ahlen, North Rhine-Westphalia, Germany — Yesterday and Last 2 Weeks

Now
55 °F

Passing clouds.


Feels Like: 54 °F
Forecast: 57 / 45 °F
Wind: 6 mph from South

Location: Dortmund / Wickede

Current Time: Oct 21, 2019 at 7:58:38 am

Latest Report: Oct 21, 2019 at 7:20 am


Visibility: N/A

Pressure: 29.89 "Hg

Humidity: 100%

Dew Point: 55 °F

Location of AhlenLocation

Past Weather in Ahlen — Graph

°F

Ahlen Temperature Yesterday

Maximum temperature yesterday: 55 °F (at 11:20 am)
Minimum temperature yesterday: 52 °F (at 1:20 am)
Average temperature yesterday: 53 °F

High & Low Weather Summary for the Past Weeks

 TemperatureHumidityPressure
High73 °F (Oct 13, 3:20 pm)100% (Oct 6, 9:50 pm)30.09 "Hg (Oct 6, 9:50 pm)
Low41 °F (Oct 7, 7:50 am)53% (Oct 14, 11:20 pm)29.65 "Hg (Oct 9, 4:20 pm)
Average56 °F82%29.81 "Hg
* Reported Oct 6 6:20 am — Oct 21 6:20 am, Ahlen. Weather by CustomWeather, © 2019

Note: Actual official high and low records may vary slightly from our data, if they occured in-between our weather recording intervals... More about our weather records

Advertising

Ahlen Weather History for the Previous 24 Hours

Scroll right to see more
 ConditionsComfort  
Time TempWeatherWind HumidityBarometerVisibility
6:20 am
Mon, Oct 21
54 °FClear.5 mph100%29.89 "Hg10 mi
5:50 am52 °FPassing clouds.3 mph100%29.89 "Hg4 mi
5:20 am52 °FFog.3 mph94%29.86 "Hg2 mi
4:50 am52 °FMostly cloudy.No wind100%29.86 "Hg0 mi
4:20 am52 °FMostly cloudy.2 mph100%29.86 "Hg0 mi
3:50 am52 °FMostly cloudy.2 mph100%29.86 "Hg0 mi
3:20 am52 °FMostly cloudy.2 mph100%29.86 "Hg0 mi
2:50 am54 °FMostly cloudy.3 mph94%29.83 "Hg0 mi
1:50 am54 °FPassing clouds.5 mph94%29.83 "Hg1 mi
1:20 am54 °FPassing clouds.5 mph94%29.83 "Hg2 mi
12:50 am54 °FPassing clouds.3 mph94%29.86 "Hg2 mi
12:20 am52 °FMostly cloudy.3 mph100%29.83 "Hg1 mi
11:50 pm
Sun, Oct 20
54 °FMostly cloudy.2 mph94%29.83 "Hg1 mi
11:20 pm54 °FMostly cloudy.2 mph94%29.83 "Hg1 mi
10:50 pm52 °FLow clouds.2 mph100%29.83 "Hg1 mi
10:20 pm52 °FMostly cloudy.2 mph100%29.80 "Hg1 mi
9:50 pm54 °FFog.2 mph94%29.80 "Hg1 mi
9:20 pm54 °FFog.3 mph94%29.80 "Hg1 mi
8:50 pm54 °FDrizzle. Fog.2 mph100%29.80 "Hg2 mi
8:20 pm54 °FDrizzle. Fog.5 mph100%29.77 "Hg2 mi
7:50 pm54 °FDrizzle. Fog.3 mph94%29.77 "Hg2 mi
7:20 pm54 °FLight rain. Fog.2 mph94%29.77 "Hg2 mi
6:50 pm54 °FLight rain. Passing clouds.3 mph94%29.77 "Hg3 mi
6:20 pm54 °FLight rain. Low clouds.3 mph94%29.77 "Hg3 mi
5:50 pm52 °FLight rain. Fog.5 mph100%29.77 "Hg2 mi
5:20 pm52 °FLight rain. Low clouds.3 mph100%29.77 "Hg4 mi
4:50 pm52 °FLight rain. Mostly cloudy.3 mph100%29.77 "Hg3 mi
4:20 pm54 °FLight rain. Fog.7 mph94%29.77 "Hg2 mi
3:50 pm54 °FLight rain. Fog.5 mph100%29.77 "Hg2 mi
3:20 pm54 °FLight rain. Fog.6 mph94%29.77 "Hg2 mi
2:50 pm54 °FMore clouds than sun.6 mph100%29.77 "HgN/A
2:20 pm54 °FLight rain. Broken clouds.7 mph100%29.77 "Hg2 mi
1:50 pm54 °FLight rain. Mostly cloudy.7 mph100%29.80 "HgN/A
1:20 pm54 °FMostly cloudy.5 mph100%29.80 "HgN/A
12:50 pm54 °FLight rain. More clouds than sun.6 mph100%29.77 "HgN/A
12:20 pm54 °FLight rain. Partly sunny.3 mph100%29.80 "HgN/A
11:50 am55 °FPartly sunny.3 mph88%29.77 "HgN/A
11:20 am55 °FPartly sunny.3 mph94%29.77 "HgN/A
10:50 am54 °FPartly sunny.2 mph94%29.77 "HgN/A
10:20 am54 °FOvercast.1 mph94%29.77 "HgN/A
9:50 am54 °FPartly sunny.3 mph94%29.77 "HgN/A
9:20 am54 °FPartly sunny.5 mph94%29.77 "HgN/A
8:50 am52 °FOvercast.2 mph100%29.77 "HgN/A
8:20 am52 °FPassing clouds.5 mph100%29.77 "HgN/A
7:50 am52 °FPassing clouds.3 mph100%29.77 "HgN/A
7:20 am52 °FPassing clouds.5 mph100%29.77 "HgN/A
Weather by CustomWeather, © 2019

See weather overview